DateTimeUTC,F1_A11,F1_S11,BsB_S11,BsG_S11,BsR_S11,BbsB_S11,BbsG_S11,BbsR_S11,BaB_A11,BaG_A11,BaR_A11,Tu_S11,T_S11,Uu_S11,U_S11,P_S11,T1_A11
2021-01-27T12:00:00Z,00000200,21000000,,,,,,,0000.00,0000.39,0000.02,15.3,22.5,,00.0,0637.5,30.9
2021-01-27T12:01:00Z,00000200,21000000,,,,,,,-000.36,-000.47,0000.12,15.3,22.6,,00.0,0637.5,30.9
2021-01-27T12:02:00Z,00000200,21000000,,,,,,,0000.32,0000.07,0000.12,15.3,22.6,,00.0,0637.5,30.9
2021-01-27T12:03:00Z,00000200,61000000,,,,,,,-000.08,0000.15,-000.26,15.3,22.6,,00.0,0637.5,30.9
2021-01-27T12:04:00Z,00000200,41000000,-000.03,0000.20,0000.02,-000.06,-000.03,0000.03,-000.08,-000.29,-000.23,15.5,22.4,,00.0,0638.5,30.9
2021-01-27T12:05:00Z,00000200,01000000,0000.72,0000.05,0000.24,-000.32,-000.18,0000.07,-000.15,-000.03,-000.01,15.4,22.3,,00.0,0638.5,30.9
2021-01-27T12:06:00Z,00000200,01000000,0000.95,0000.20,0000.33,0000.43,-000.17,0000.12,0000.30,0000.02,-000.14,15.4,22.3,,00.0,0638.5,30.8
2021-01-27T12:07:00Z,00000200,01000000,0000.16,0000.04,0000.42,0000.20,-000.02,-000.02,0000.00,0000.18,0000.25,15.4,22.2,,00.0,0638.5,30.8
2021-01-27T12:08:00Z,00000200,01000000,0000.93,0000.25,0000.06,0000.86,-000.11,-000.11,0000.12,-000.20,0000.25,15.4,22.2,,00.0,0638.5,30.8
2021-01-27T12:09:00Z,00000200,01000000,0000.50,0000.11,-000.08,0001.03,0000.01,-000.06,0000.03,-000.00,-000.31,15.4,22.2,,00.0,0638.5,30.8
2021-01-27T12:10:00Z,00000200,01000000,0000.14,0000.36,-000.10,0000.14,-000.12,-000.20,-000.01,0000.37,0000.29,15.4,22.2,,00.0,0638.5,30.8
2021-01-27T12:11:00Z,00000200,01000000,0000.58,-000.16,-000.19,0000.14,0000.04,-000.12,0000.20,0000.24,-000.00,15.5,22.2,,00.0,0638.5,30.8
2021-01-27T12:12:00Z,00000200,01000000,0000.57,-000.26,-000.07,0000.38,-000.06,-000.09,-000.00,-000.32,0000.05,15.5,22.3,,00.0,0638.5,30.8
2021-01-27T12:13:00Z,00000200,01000000,0000.63,0000.04,0000.09,0000.55,-000.09,-000.02,0000.09,0000.18,0000.22,15.6,22.3,,00.0,0638.5,30.9
2021-01-27T12:14:00Z,00000200,01000000,0000.04,0000.05,0000.07,0000.08,0000.01,-000.04,0000.12,-000.05,0000.23,15.6,22.3,,00.0,0638.5,30.9
2021-01-27T12:15:00Z,00000200,01000000,0000.13,0000.26,0000.11,0000.36,0000.02,0000.04,0000.12,0000.77,-000.14,15.6,22.3,,00.0,0638.4,30.9
2021-01-27T12:16:00Z,00000200,01000000,0000.61,0000.34,-000.23,0000.04,-000.06,-000.11,-000.32,0000.16,0000.59,15.7,22.4,,00.0,0638.4,30.9
2021-01-27T12:17:00Z,00000200,01000000,-000.15,0000.14,0000.12,0000.39,-000.00,0000.02,0000.41,-000.60,-000.63,15.7,22.4,,00.0,0638.4,30.9
2021-01-27T12:18:00Z,00000200,01000000,-000.16,0000.41,-000.10,0000.25,-000.08,-000.21,-000.05,-000.15,0000.33,15.7,22.4,,00.0,0638.4,30.9
2021-01-27T12:19:00Z,00000200,01000000,0000.42,0000.15,-000.26,0000.42,0000.15,-000.20,0000.02,0000.29,-000.16,15.7,22.4,,00.0,0638.4,30.9
2021-01-27T12:20:00Z,00000200,01000000,0000.39,-000.06,0000.11,0000.07,0000.06,0000.02,-000.32,0000.05,-000.41,15.7,22.4,,00.0,0638.4,30.9
2021-01-27T12:21:00Z,00000200,01000000,0000.44,0000.40,-000.02,0000.36,-000.01,-000.04,0000.30,-000.09,0000.22,15.6,22.3,,00.0,0638.4,30.9
2021-01-27T12:22:00Z,00000200,01000000,0000.44,0000.12,-000.02,0000.40,0000.03,-000.11,0000.17,0000.23,0000.59,15.6,22.3,,00.0,0638.3,30.8
2021-01-27T12:23:00Z,00000200,01000000,-000.38,0000.05,0000.11,0000.10,0000.08,0000.07,0000.54,0000.25,0000.07,15.6,22.3,,00.0,0638.4,30.8
2021-01-27T12:24:00Z,00000200,01000000,-000.44,0000.21,0000.05,0000.26,0000.16,-000.02,0000.07,0000.07,-000.04,15.6,22.3,,00.0,0638.4,30.8
2021-01-27T12:25:00Z,00000200,01000000,-000.04,0000.28,0000.09,-000.25,0000.04,0000.06,0000.17,0000.24,0000.47,15.6,22.3,,00.0,0638.4,30.8
2021-01-27T12:26:00Z,00000200,01000000,0000.52,0000.01,0000.16,-000.11,-000.04,-000.09,0000.07,-000.09,-000.45,15.7,22.3,,00.0,0638.4,30.9
2021-01-27T12:27:00Z,00000200,01000000,0000.60,0000.12,-000.10,0000.04,0000.07,-000.18,0000.54,0000.32,0000.52,15.7,22.3,,00.0,0638.3,30.9
2021-01-27T12:28:00Z,00000200,01000000,-000.50,0000.04,0000.05,0000.02,-000.01,0000.08,-000.06,0000.54,0000.19,15.7,22.4,,00.0,0638.3,30.9
2021-01-27T12:29:00Z,00000200,01000000,-000.19,0000.34,0000.10,0000.18,0000.18,-000.24,0000.52,0000.10,0000.33,15.8,22.4,,00.0,0638.3,30.9
2021-01-27T12:30:00Z,00000200,01000000,0000.53,0000.47,0000.27,-000.08,0000.07,0000.19,0000.56,0000.12,-000.06,15.8,22.4,,00.0,0638.3,30.9
2021-01-27T12:31:00Z,00000200,01000000,0000.12,0000.11,0000.07,0000.15,-000.16,0000.09,-000.23,0000.47,0000.23,15.8,22.4,,00.0,0638.3,30.9
2021-01-27T12:32:00Z,00000200,01000000,-000.18,-000.16,0000.09,-000.25,-000.12,-000.16,-000.21,-000.07,0000.06,15.9,22.4,,00.0,0638.2,30.9
2021-01-27T12:33:00Z,00000200,01000000,0000.72,0000.34,-000.06,-000.02,-000.17,-000.13,0000.24,0000.16,-000.26,15.8,22.4,,00.0,0638.2,30.9
2021-01-27T12:34:00Z,00000200,01000000,0000.39,0000.13,-000.13,0000.26,0000.11,0000.15,-000.01,-000.46,0000.14,15.8,22.4,,00.0,0638.2,30.9
2021-01-27T12:35:00Z,00000200,01000000,0000.47,0000.23,0000.10,0000.03,0000.07,-000.04,0000.13,0000.51,0000.14,15.7,22.4,,00.0,0638.2,30.9
2021-01-27T12:36:00Z,00000200,01000000,0000.42,-000.15,-000.10,0000.15,0000.17,-000.33,-000.13,-000.58,-000.22,15.6,22.3,,00.0,0638.2,30.9
2021-01-27T12:37:00Z,00000200,01000000,0000.77,-000.12,-000.08,0000.17,0000.10,-000.28,0000.21,0000.29,0000.19,15.6,22.3,,00.0,0638.2,30.9
2021-01-27T12:38:00Z,00000200,01000000,-000.42,0000.30,0000.01,-000.37,-000.15,0000.03,0000.12,0000.18,-000.21,15.6,22.3,,00.0,0638.2,30.8
2021-01-27T12:39:00Z,00000200,01000000,0000.41,0000.22,0000.12,0000.32,0000.23,0000.00,0000.39,0000.30,0000.31,15.6,22.3,,00.0,0638.2,30.8
2021-01-27T12:40:00Z,00000200,01000000,-000.04,0000.10,-000.07,0000.06,-000.17,-000.25,-000.03,0000.53,0000.27,15.6,22.3,,00.0,0638.2,30.8
2021-01-27T12:41:00Z,00000200,01000000,0000.09,0000.33,0000.31,0000.39,-000.00,0000.03,0000.44,-000.25,0000.19,15.6,22.3,,00.0,0638.2,30.8
2021-01-27T12:42:00Z,00000200,01000000,-000.07,-000.09,0000.12,0000.04,-000.10,0000.12,0000.44,0000.62,0000.15,15.7,22.4,,00.0,0638.2,30.8
2021-01-27T12:43:00Z,00000200,01000000,0000.06,0000.13,0000.13,-000.38,-000.24,0000.12,-000.22,0000.00,0000.20,15.7,22.4,,00.0,0638.3,30.9
2021-01-27T12:44:00Z,00000200,01000000,0000.18,0000.02,0000.23,0000.36,0000.06,0000.15,0000.06,-000.41,-000.35,15.8,22.4,,00.0,0638.2,30.9
2021-01-27T12:45:00Z,00000200,01000000,0000.21,0000.11,0000.16,-000.27,-000.04,0000.20,-000.23,0000.28,0000.27,15.8,22.4,,00.0,0638.3,30.9
2021-01-27T12:46:00Z,00000200,01000000,0000.45,0000.17,0000.31,0000.64,-000.00,0000.11,0000.17,-000.29,0000.12,15.9,22.4,,00.0,0638.2,30.9
2021-01-27T12:47:00Z,00000200,01000000,-000.48,0000.07,0000.27,0000.07,-000.17,0000.21,-000.59,0000.22,-000.18,15.9,22.4,,00.0,0638.3,30.9
2021-01-27T12:48:00Z,00000200,01000000,0000.56,0000.02,-000.01,-000.27,0000.11,-000.02,0000.33,0000.04,0000.02,15.8,22.4,,00.0,0638.3,30.9
2021-01-27T12:49:00Z,00000200,01000000,0000.10,-000.37,0000.21,0000.50,0000.02,0000.17,0000.11,-000.24,-000.62,15.8,22.4,,00.0,0638.2,30.9
2021-01-27T12:50:00Z,00000200,01000000,0000.45,-000.02,-000.01,0000.04,-000.02,0000.01,0000.28,-000.06,0000.57,15.7,22.4,,00.0,0638.2,30.9
2021-01-27T12:51:00Z,00000200,01000000,-000.48,0000.07,-000.02,-000.22,0000.02,0000.09,-000.33,-000.01,-000.03,15.6,22.3,,00.0,0638.2,30.9
2021-01-27T12:52:00Z,00000200,01000000,-000.43,0000.01,-000.01,0000.10,0000.08,-000.13,0000.40,0000.67,0000.14,15.6,22.3,,00.0,0638.1,30.8
2021-01-27T12:53:00Z,00000200,01000000,-000.05,0000.03,0000.44,0000.03,-000.00,0000.28,0000.46,-000.06,0000.04,15.6,22.3,,00.0,0638.2,30.8
2021-01-27T12:54:00Z,00000200,01000000,-000.52,-000.14,0000.27,-000.22,-000.01,0000.12,0000.32,0000.63,0000.37,15.6,22.3,,00.0,0638.2,30.8
2021-01-27T12:55:00Z,00000200,01000000,0001.63,0001.48,0001.72,0000.52,0000.36,0000.35,0003.81,0003.01,0003.47,15.6,22.3,,00.0,0638.4,30.8
2021-01-27T12:56:00Z,00000200,01000000,0005.46,0005.64,0004.97,0000.30,0000.73,0000.52,0009.94,0009.94,0009.65,15.6,22.2,,00.0,0636.9,30.8
2021-01-27T12:57:00Z,00000200,41000000,,,,,,,-000.58,-000.12,-000.51,15.6,22.3,,00.0,0636.7,30.8
2021-01-27T12:58:00Z,00000200,61000000,,,,,,,0000.15,0000.17,0000.01,15.2,22.4,,00.0,0635.8,30.8
2021-01-27T12:59:00Z,00000200,21000000,,,,,,,0000.52,0000.32,0000.19,15.1,22.5,,00.0,0635.7,30.8
